Zurück zum Katalog

CZ-3B R/B

AktivHEO
NORAD 41587·ROCKET BODY·🇨🇳 China

Gestartet Jun 12, 2016 von Xichang Satellite Launch Center

Loading…

Nächste Überflüge (nächste 24 Stunden)

TLE

AktuellSource: Space-Track

Epoche: Sep 14, 2026, 10:53 UTC

1 41587U 16037B   26257.45409199  .00045415  63087-6  10440-2 0  9995
2 41587  19.4042   5.7868 5645362  30.7373 352.6247  4.68105566119769

Verfolge CZ-3B R/B in Echtzeit mit AllMySat

Download on the App Store